Погода в Тангалле

Шри-Ланка     6°01′38″N   80°47′41″E
темп.,
°C
ветер,
м/с
пор.,
м/с
влажн.,
%
обл.,
%
осадки,
мм/ч
давл.,
гПа
погр.,
м
12 августа, пт
пт1223:30+25з3892100 0.0 1010344
02:30+25з41092100 0.0 1008483
05:30+25з4118850 0.0 1008642
08:30+28з6107276 0.0 1010930
11:30+31з7115888 0.0 10081220
14:30+31зюз7115886 0.1 10061312
17:30+28зюз6973100 0.1 1007829
20:30+26з5108394 0.0 1009564
13 августа, сб
сб1323:30+26з41086100 0.0 1009590
02:30+25з4108997 0.0 1008595
05:30+25з4108597 0.0 1008675
08:30+28з6972100 0.0 1009868
11:30+31з7106097 0.0 10081096
14:30+31зюз71057100 0.0 10051112
17:30+28з61071100 0.0 1006820
20:30+26з51183100 0.0 1009725
14 августа, вс
вс1423:30+26з51186100 0.0 1008641
02:30+25з5118897 0.0 1007737
05:30+25з51186100 0.0 1008774
08:30+28з61072100 0.0 1009937
11:30+31з71058100 0.0 10091079
14:30+30зюз8106097 0.0 10071065
17:30+28з61171100 0.0 1007852
20:30+26з51184100 0.0 1010803
15 августа, пн
пн1523:30+26з5108875 0.0 1009728
02:30+25з51089100 0.1 1007675
05:30+25з51086100 0.1 1008713
08:30+28з587185 0.0 1010881
11:30+30юз6762100 0.1 10091168
14:30+30юз7865100 0.0 10071152
17:30+28зюз6975100 0.0 1008737
20:30+26зюз498321 0.0 1010593
16 августа, вт
вт1623:30+26зюз498599 0.0 1010476
02:30+26зюз498538 0.1 1008565
05:30+25з49887 0.2 1009492
08:30+28з577139 0.0 1011864
11:30+30юз676258 0.0 10101191
14:30+29юз7766100 0.0 10071064
17:30+28зюз68745 0.0 1008715
20:30+26зюз488630 0.0 1010480